Home > Weather > Prescott > Past weeks

Flag for USA Weather for the Past 2 Weeks in Prescott, Arizona, USA

Now
50 °F

Passing clouds.


Feels Like: 49 °F
Forecast: 40 / 64 °F
Wind: 3 mph from South

Location: Love Field

Current Time: May 1, 2016 at 9:17:05 PM

Latest Report: May 1, 2016 at 7:53 PM


Visibility: 10 mi

Pressure: 29.94 "Hg (24.58 "Hg at 1635m altitude)

Humidity: 71%

Dew Point: 41 °F

Location of PrescottLocation

Historic Weather in Prescott — Graph

°F

Prescott Temperature Yesterday

Maximum temperature yesterday: 55 °F (at 2:53 PM)
Minimum temperature yesterday: 40 °F (at 10:53 PM)
Average temperature yesterday: 48 °F

High & Low Weather Summary for the Past Weeks

 TemperatureHumidityPressure
High78 °F (Apr 21, 1:53 PM)100% (Apr 30, 10:53 PM)30.10 "Hg (Apr 30, 10:53 PM)
Low33 °F (Apr 18, 5:53 AM)7% (Apr 21, 4:53 PM)29.50 "Hg (Apr 28, 2:53 AM)
Average54 °F40%29.82 "Hg
* Reported Apr 16 7:53 PM — May 1 7:53 PM, Prescott, Weather by CustomWeather, © 2016

Note: Actual official high and low records may vary slightly from our data, if they occured in-between our weather recording intervals... More about our weather records

Advertising

Prescott Weather History for the Previous 24 Hours

Scroll right to see more
 ConditionsComfort  
Time TempWeatherWind HumidityBarometerVisibility
7:53 PM
Sun, May 1
50 °FPassing clouds.3 mph71%29.94 "Hg10 mi
6:53 PM52 °FBroken clouds.8 mph72%29.93 "Hg10 mi
5:53 PM55 °FMostly cloudy.3 mph55%29.90 "Hg10 mi
4:53 PM57 °FBroken clouds.3 mph51%29.88 "Hg10 mi
3:53 PM53 °FOvercast.9 mph72%29.88 "Hg10 mi
2:53 PM53 °FBroken clouds.5 mph64%29.89 "Hg10 mi
1:53 PM52 °FMore clouds than sun.5 mph69%29.90 "Hg10 mi
12:53 PM53 °FMostly cloudy.10 mph64%29.88 "Hg10 mi
11:53 AM52 °FMostly cloudy.7 mph64%29.88 "Hg10 mi
11:00 AM54 °FPartly sunny.6 mph59%29.97 "Hg10 mi
9:53 AM49 °FMostly cloudy.3 mph77%29.87 "Hg10 mi
8:53 AM46 °FMostly cloudy.3 mph86%29.86 "Hg10 mi
7:53 AM45 °FMostly cloudy.3 mph90%29.84 "Hg10 mi
6:53 AM43 °FMore clouds than sun.No wind97%29.81 "Hg10 mi
5:53 AM42 °FMore clouds than sun.No wind96%29.78 "Hg10 mi
4:53 AM42 °FMostly cloudy.3 mph96%29.75 "Hg10 mi
3:53 AM42 °FMostly cloudy.No wind92%29.74 "Hg10 mi
2:53 AM41 °FMostly cloudy.3 mph96%29.72 "Hg10 mi
1:53 AM40 °FPassing clouds.5 mph97%29.73 "Hg10 mi
12:53 AM40 °FPartly cloudy.6 mph97%29.75 "Hg10 mi
11:53 PM
Sat, Apr 30
40 °FPartly cloudy.6 mph97%29.77 "Hg10 mi
10:53 PM40 °FOvercast.7 mph100%29.75 "Hg10 mi
9:53 PM41 °FHeavy rain. Fog.13 mph89%29.75 "Hg3 mi
Weather by CustomWeather, © 2016

See weather overviewHow to use our weather pages